TimeCDT,TemperatureF,Dew PointF,Humidity,Sea Level PressureIn,VisibilityMPH,Wind Direction,Wind SpeedMPH,Gust SpeedMPH,PrecipitationIn,Events,Conditions,WindDirDegrees,DateUTC
12:56 AM,52.0,46.9,83,29.95,-9999.0,NNW,13.8,-,N/A,,Unknown,340,2013-10-15 05:56:00
1:56 AM,48.9,43.0,80,29.99,-9999.0,NNW,13.8,-,N/A,,Unknown,340,2013-10-15 06:56:00
2:56 AM,48.0,41.0,77,30.03,-9999.0,NNW,15.0,-,N/A,,Unknown,340,2013-10-15 07:56:00
3:56 AM,46.0,39.9,79,30.04,-9999.0,NNW,12.7,-,N/A,,Unknown,330,2013-10-15 08:56:00
4:56 AM,45.0,39.9,82,30.05,-9999.0,NW,10.4,-,N/A,,Unknown,320,2013-10-15 09:56:00
5:56 AM,45.0,37.9,76,30.06,-9999.0,NNW,11.5,-,N/A,,Unknown,340,2013-10-15 10:56:00
6:56 AM,44.1,37.0,76,30.08,-9999.0,NNW,9.2,-,N/A,,Unknown,330,2013-10-15 11:56:00
7:56 AM,43.0,36.0,76,30.10,-9999.0,NNW,11.5,-,N/A,,Unknown,340,2013-10-15 12:56:00
8:56 AM,46.0,36.0,68,30.12,-9999.0,NNW,13.8,23.0,N/A,,Unknown,340,2013-10-15 13:56:00
9:56 AM,48.0,35.1,61,30.14,-9999.0,NNW,18.4,28.8,N/A,,Unknown,340,2013-10-15 14:56:00
10:56 AM,50.0,35.1,57,30.15,-9999.0,NNW,16.1,26.5,N/A,,Unknown,340,2013-10-15 15:56:00
11:56 AM,54.0,36.0,51,30.13,-9999.0,North,18.4,29.9,N/A,,Unknown,350,2013-10-15 16:56:00
12:56 PM,57.0,37.0,47,30.13,-9999.0,North,19.6,25.3,N/A,,Unknown,360,2013-10-15 17:56:00
1:56 PM,59.0,37.0,44,30.10,-9999.0,North,17.3,24.2,N/A,,Unknown,360,2013-10-15 18:56:00
2:56 PM,60.1,36.0,41,30.09,-9999.0,North,18.4,26.5,N/A,,Unknown,360,2013-10-15 19:56:00
3:56 PM,60.1,35.1,39,30.08,-9999.0,North,20.7,26.5,N/A,,Unknown,360,2013-10-15 20:56:00
4:56 PM,60.1,36.0,41,30.09,-9999.0,North,18.4,23.0,N/A,,Unknown,10,2013-10-15 21:56:00
5:56 PM,57.9,35.1,42,30.11,-9999.0,North,15.0,-,N/A,,Unknown,350,2013-10-15 22:56:00
6:56 PM,54.0,35.1,49,30.11,-9999.0,NNW,13.8,-,N/A,,Unknown,340,2013-10-15 23:56:00
7:56 PM,50.0,37.0,61,30.14,-9999.0,North,5.8,-,N/A,,Unknown,360,2013-10-16 00:56:00
8:56 PM,46.0,37.0,71,30.16,-9999.0,North,4.6,-,N/A,,Unknown,350,2013-10-16 01:56:00
9:56 PM,44.1,37.0,76,30.18,-9999.0,North,5.8,-,N/A,,Unknown,360,2013-10-16 02:56:00
10:56 PM,44.1,37.0,76,30.19,-9999.0,Calm,Calm,-,N/A,,Unknown,0,2013-10-16 03:56:00
11:56 PM,39.9,35.1,83,30.19,-9999.0,North,5.8,-,N/A,,Unknown,350,2013-10-16 04:56:00